sat.trackr.live / text

‹ back to catalog

STARLINK-31592

NORAD 59467 · 2024-068N

PAYLOAD ACTIVE UNKNOWN

§ Identity

Operator
Country
US
Launch date
2024-04-10
Launch site
AFETR
Launch vehicle
Mass (kg)
RCS (m²)

Purposes: comms

External: N2YO · Heavens-Above · Gunter

§ Orbital elements

Epoch: 2026-05-24T21:22:48.442944Z

Period
94.27 min
Inclination
43.0043°
Eccentricity
0.0002190
Mean motion
15.27584201 rev/d
Perigee alt
481.5 km
Apogee alt
484.5 km
Semi-major
6,861.2 km
B*
4.8489e-5
RAAN
324.4411°
Arg perigee
274.0147°
Mean anomaly
86.0455°
Rev number
12,017

§ Raw data

STARLINK-315921 59467U 24068N   26144.89083846  .00001072  00000+0  48489-4 0  99902 59467  43.0043 324.4411 0002190 274.0147  86.0455 15.27584201120177

JSON: /api/v1/satellites/59467 · /tle

For live sub-satellite position, see the globe view (requires WebGL).

§ Visibility from observer

Set your observer location to see the next 7 days of passes ≥ 10°. The values pass through the URL so the page stays shareable.

No JS? Fill the form by hand. The geolocation button needs JavaScript.